EW9434 Weather Reports


time (UTC)temp
F
wind
direction
speed
knots
gust
knots
rain 1hr
in
rain 24hr
in
rain mn
in
humidity
%
barometer
mb
20260503012204 45 282 0.9 2.6 0.00 0.00 0.00 58 1017.4
20260503011700 45 283 0.9 2.6 0.00 0.00 0.00 57 1017.3
20260503011553 45 282 0.0 2.6 0.00 0.00 0.00 57 1018.0
20260503011151 45 283 0.9 2.6 0.00 0.00 0.00 57 1017.3
20260503010622 46 283 0.9 2.6 0.00 0.00 0.00 57 1017.2
20260503010121 46 283 0.9 2.6 0.00 0.00 0.00 56 1017.2
20260503010008 45 284 0.0 1.7 0.00 0.00 0.00 56 1017.9
20260503005832 46 282 0.9 2.6 0.00 0.00 0.00 56 1017.2
20260503005315 46 282 0.9 2.6 0.00 0.00 0.00 55 1017.1
20260503004522 47 282 0.9 2.6 0.00 0.00 0.00 54 1017.1
20260503004506 46 282 0.9 2.6 0.00 0.00 0.00 54 1017.8
20260503003955 47 282 0.9 3.5 0.00 0.00 0.00 53 1017.0
20260503003427 47 282 0.9 3.5 0.00 0.00 0.00 53 1017.1
20260503003008 47 282 0.0 2.6 0.00 0.00 0.00 53 1017.8
20260503002925 47 282 0.9 3.5 0.00 0.00 0.00 53 1017.1
20260503002613 48 282 1.7 3.5 0.00 0.00 0.00 52 1017.1
20260503001855 48 282 1.7 5.2 0.00 0.00 0.00 51 1017.0
20260503001519 48 282 1.7 5.2 0.00 0.00 0.00 52 1017.7
20260503001327 49 282 1.7 2.6 0.00 0.00 0.00 51 1016.8
20260503000800 49 278 1.7 6.1 0.00 0.00 0.00 51 1016.7
20260503000236 49 273 1.7 6.1 0.00 0.00 0.00 50 1016.7
20260503000054 49 273 1.7 5.2 0.00 0.00 0.00 50 1017.5
20260502235710 50 273 1.7 4.3 0.00 0.00 0.00 50 1016.6
20260502235430 50 273 1.7 4.3 0.00 0.00 0.00 49 1016.6
20260502234638 50 290 1.7 8.7 0.00 0.00 0.00 49 1016.5
20260502234552 50 273 0.9 8.7 0.00 0.00 0.00 49 1017.4
20260502234135 50 288 0.9 8.7 0.00 0.00 0.00 49 1016.5
20260502233829 50 273 1.7 4.3 0.00 0.00 0.00 50 1016.4
20260502233106 50 278 1.7 4.3 0.00 0.00 0.00 48 1016.4
20260502233040 49 278 1.7 4.3 0.00 0.00 0.00 48 1017.2
20260502232601 50 282 1.7 7.0 0.00 0.00 0.00 48 1016.4
20260502232341 50 282 2.6 7.0 0.00 0.00 0.00 48 1016.4
20260502232236 50 287 2.6 7.0 0.00 0.00 0.00 48 1016.4
20260502231549 50 282 1.7 7.0 0.00 0.00 0.00 48 1017.2
20260502231029 51 288 1.7 7.8 0.00 0.00 0.00 46 1016.4
20260502230518 51 286 1.7 4.3 0.00 0.00 0.00 45 1016.4
20260502230105 51 282 0.9 3.5 0.00 0.00 0.00 45 1017.2
20260502225940 52 288 1.7 3.5 0.00 0.00 0.00 44 1016.3
20260502225438 52 273 1.7 8.7 0.00 0.00 0.00 44 1016.3
20260502225129 53 278 1.7 8.7 0.00 0.00 0.00 43 1016.2
20260502224551 53 287 0.9 8.7 0.00 0.00 0.00 45 1017.0
20260502224403 53 234 1.7 6.1 0.00 0.00 0.00 44 1016.2
20260502223834 53 282 2.6 6.1 0.00 0.00 0.00 44 1016.2
20260502223331 52 273 2.6 7.0 0.00 0.00 0.00 44 1016.2
20260502223043 52 289 1.7 7.0 0.00 0.00 0.00 44 1016.9
20260502222810 52 288 1.7 6.1 0.00 0.00 0.00 46 1016.1
20260502222804 52 273 1.7 5.2 0.00 0.00 0.00 44 1016.1
20260502221735 52 291 2.6 7.0 0.00 0.00 0.00 44 1016.1
20260502221557 51 286 2.6 7.0 0.00 0.00 0.00 43 1016.9
20260502221206 52 290 2.6 5.2 0.00 0.00 0.00 44 1016.1
20260502220704 52 290 1.7 6.1 0.00 0.00 0.00 43 1016.1
20260502220137 52 282 1.7 6.1 0.00 0.00 0.00 44 1016.2
20260502220015 52 289 0.9 4.3 0.00 0.00 0.00 47 1017.0
20260502215631 52 273 1.7 5.2 0.00 0.00 0.00 44 1016.0
20260502215114 52 273 2.6 5.2 0.00 0.00 0.00 45 1016.0
20260502214610 53 273 1.7 5.2 0.00 0.00 0.00 43 1016.0
20260502214528 52 273 1.7 5.2 0.00 0.00 0.00 42 1016.8
20260502214112 53 273 1.7 4.3 0.00 0.00 0.00 43 1016.0
20260502213613 53 273 2.6 4.3 0.00 0.00 0.00 42 1015.9
20260502213109 53 273 3.5 9.6 0.00 0.00 0.00 41 1015.9
20260502213017 53 273 2.6 6.1 0.00 0.00 0.00 42 1016.7
20260502212607 54 299 3.5 9.6 0.00 0.00 0.00 38 1015.8
20260502212039 55 144 2.6 8.7 0.00 0.00 0.00 46 1015.9
20260502211539 53 288 2.6 7.8 0.00 0.00 0.00 42 1015.9
20260502211507 53 288 3.5 7.8 0.00 0.00 0.00 42 1016.7
20260502211011 53 273 2.6 5.2 0.00 0.00 0.00 42 1015.8
20260502210507 53 273 2.6 5.2 0.00 0.00 0.00 42 1015.9
20260502210119 53 273 1.7 7.8 0.00 0.00 0.00 42 1016.6
20260502205941 53 287 2.6 7.8 0.00 0.00 0.00 42 1015.8
20260502205436 54 282 2.6 7.8 0.00 0.00 0.00 40 1015.8
20260502204913 53 288 2.6 7.8 0.00 0.00 0.00 44 1015.8
20260502204819 53 288 2.6 7.8 0.00 0.00 0.00 42 1015.9
20260502204512 53 286 1.7 7.8 0.00 0.00 0.00 42 1016.6
20260502203842 53 273 3.5 8.7 0.00 0.00 0.00 45 1015.9
20260502203328 52 273 2.6 8.7 0.00 0.00 0.00 42 1015.9
20260502203018 52 291 3.5 8.7 0.00 0.00 0.00 41 1016.7
20260502202827 53 287 2.6 9.6 0.00 0.00 0.00 42 1015.9
20260502202516 53 288 3.5 9.6 0.00 0.00 0.00 42 1016.0
20260502202025 53 288 2.6 9.6 0.00 0.00 0.00 43 1016.0
20260502201531 53 286 2.6 5.2 0.00 0.00 0.00 42 1016.8
20260502201457 54 282 2.6 10.4 0.00 0.00 0.00 40 1016.0
20260502200706 53 289 3.5 10.4 0.00 0.00 0.00 40 1016.1
20260502200138 53 286 3.5 9.6 0.00 0.00 0.00 44 1016.1
20260502200050 52 288 3.5 8.7 0.00 0.00 0.00 41 1016.9
20260502195900 53 286 3.5 10.4 0.00 0.00 0.00 43 1016.1
20260502195135 54 287 3.5 10.4 0.00 0.00 0.00 40 1016.2
20260502194631 55 224 2.6 7.8 0.00 0.00 0.00 40 1016.2
20260502194609 55 223 2.6 7.8 0.00 0.00 0.00 39 1017.0
20260502194106 55 144 3.5 7.8 0.00 0.00 0.00 41 1016.2
20260502193558 55 314 2.6 7.8 0.00 0.00 0.00 40 1016.2
20260502193057 55 284 2.6 7.0 0.00 0.00 0.00 41 1016.2
20260502193025 54 284 2.6 6.1 0.00 0.00 0.00 41 1017.0
20260502192531 55 284 2.6 7.0 0.00 0.00 0.00 41 1016.2
20260502192223 55 282 2.6 7.0 0.00 0.00 0.00 39 1016.4
20260502191514 54 262 2.6 7.0 0.00 0.00 0.00 42 1017.2
20260502191437 55 209 2.6 7.0 0.00 0.00 0.00 41 1016.4
20260502190912 54 289 2.6 9.6 0.00 0.00 0.00 42 1016.3
20260502190346 53 288 3.5 9.6 0.00 0.00 0.00 41 1016.4
20260502190056 53 288 2.6 9.6 0.00 0.00 0.00 39 1017.3
20260502185823 54 289 3.5 8.7 0.00 0.00 0.00 39 1016.5
20260502185543 54 285 2.6 8.7 0.00 0.00 0.00 39 1016.6
20260502184758 54 288 2.6 7.8 0.00 0.00 0.00 42 1016.5
20260502184510 54 288 1.7 7.8 0.00 0.00 0.00 43 1017.3
20260502184250 54 286 2.6 7.8 0.00 0.00 0.00 39 1016.6
20260502183749 55 182 2.6 7.0 0.00 0.00 0.00 42 1016.6
20260502183225 54 284 2.6 8.7 0.00 0.00 0.00 44 1016.6
20260502183043 53 287 1.7 8.7 0.00 0.00 0.00 41 1017.4
20260502182927 53 286 3.5 8.7 0.00 0.00 0.00 43 1016.6
20260502182201 54 288 3.5 9.6 0.00 0.00 0.00 39 1016.7
20260502181637 54 288 3.5 9.6 0.00 0.00 0.00 42 1016.6
20260502181528 53 282 3.5 9.6 0.00 0.00 0.00 40 1017.5
20260502181111 53 288 3.5 13.0 0.00 0.00 0.00 42 1016.7
20260502180549 53 290 2.6 13.0 0.00 0.00 0.00 44 1016.7
20260502170310 52 273 3.5 10.4 0.00 0.00 0.00 46 1017.2
20260502164227 52 288 2.6 7.0 0.00 0.00 0.00 46 1017.3
20260502163712 52 278 2.6 7.0 0.00 0.00 0.00 45 1017.4
20260502163210 52 288 2.6 7.0 0.00 0.00 0.00 47 1017.5
20260502163052 51 278 1.7 7.0 0.00 0.00 0.00 47 1018.2
20260502162710 51 288 3.5 7.0 0.00 0.00 0.00 45 1017.5
20260502162143 51 287 3.5 7.0 0.00 0.00 0.00 46 1017.6
20260502161618 52 286 3.5 7.0 0.00 0.00 0.00 46 1017.6
20260502161548 51 286 2.6 7.0 0.00 0.00 0.00 45 1018.3
20260502161058 52 282 2.6 7.0 0.00 0.00 0.00 47 1017.5
20260502161028 52 273 2.6 7.8 0.00 0.00 0.00 47 1017.7
20260502151840 50 288 3.5 7.8 0.00 0.00 0.00 47 1017.8
20260502151633 49 278 4.3 7.8 0.00 0.00 0.00 48 1018.5
20260502151338 50 288 2.6 4.3 0.00 0.00 0.00 49 1017.7
20260502150821 50 282 2.6 4.3 0.00 0.00 0.00 49 1017.7
20260502150309 50 288 3.5 7.8 0.00 0.00 0.00 48 1017.7
20260502130304 44 291 1.7 4.3 0.00 0.03 0.00 59 1017.5
20260502123723 42 282 0.9 2.6 0.00 0.03 0.00 73 1017.5
20260502123223 41 282 0.9 6.1 0.00 0.03 0.00 73 1017.6
20260502123048 41 282 0.0 5.2 0.00 0.03 0.00 73 1018.2
20260502122659 41 282 1.7 5.2 0.00 0.03 0.00 74 1017.6
20260502122133 41 282 1.7 5.2 0.00 0.03 0.00 74 1017.3
20260502121602 41 282 0.9 3.5 0.00 0.03 0.00 76 1017.4
20260502121510 41 282 0.9 3.5 0.00 0.03 0.00 76 1018.1
20260502121321 41 282 0.9 2.6 0.00 0.03 0.00 76 1017.5
20260502120534 41 282 0.9 4.3 0.00 0.03 0.00 77 1017.4
20260502115524 40 282 0.9 4.3 0.00 0.03 0.00 81 1017.4
20260502114958 39 282 0.0 0.9 0.00 0.03 0.00 82 1017.3
20260502114924 39 282 0.0 1.7 0.00 0.03 0.00 82 1017.2
20260502114504 39 282 0.0 1.7 0.00 0.03 0.00 82 1017.9
20260502113904 39 282 0.0 1.7 0.00 0.03 0.00 82 1017.2
20260502113403 39 282 0.0 0.0 0.00 0.03 0.00 81 1017.2
20260502113002 38 282 0.0 0.0 0.00 0.03 0.00 81 1017.7
20260502112835 39 282 0.0 0.9 0.00 0.03 0.00 82 1017.1
20260502112332 39 282 0.0 0.9 0.00 0.03 0.00 82 1017.1
20260502111806 39 283 0.0 0.9 0.00 0.03 0.00 81 1017.0
20260502111725 39 283 0.0 1.7 0.00 0.03 0.00 80 1016.8
20260502111516 39 283 0.0 0.9 0.00 0.03 0.00 81 1017.6
20260502110736 39 283 0.0 1.7 0.00 0.03 0.00 80 1016.7
20260502110208 39 283 0.9 2.6 0.00 0.03 0.00 80 1016.6
20260502110008 39 282 0.0 2.6 0.00 0.03 0.00 80 1017.2
20260502105707 39 283 0.9 2.6 0.00 0.03 0.00 80 1016.4
20260502105138 39 282 0.0 1.7 0.00 0.03 0.00 81 1016.4
20260502104636 39 282 0.0 0.9 0.00 0.03 0.00 81 1016.6
20260502104606 39 283 0.0 0.9 0.00 0.03 0.00 81 1017.3
20260502104107 39 282 0.0 0.9 0.00 0.03 0.00 81 1016.6
20260502103607 39 282 0.0 0.9 0.00 0.03 0.00 82 1016.6
20260502103102 39 282 0.0 0.0 0.00 0.03 0.00 82 1016.6
20260502103010 39 282 0.0 0.0 0.00 0.03 0.00 82 1017.4
20260502102602 40 282 0.0 0.9 0.00 0.03 0.00 82 1016.6
20260502102034 39 282 0.0 0.9 0.00 0.03 0.00 81 1016.6
20260502101548 39 282 0.0 0.0 0.00 0.03 0.00 81 1017.3
20260502101509 39 282 0.0 0.9 0.00 0.03 0.00 81 1016.6
20260502101206 39 282 0.0 1.7 0.00 0.03 0.00 81 1016.6
20260502100439 39 282 0.0 1.7 0.00 0.03 0.00 81 1016.6
20260502091531 38 282 0.0 1.7 0.00 0.03 0.00 77 1017.2
20260502091426 39 282 0.9 1.7 0.00 0.03 0.00 77 1016.5
20260502090703 39 283 0.9 1.7 0.00 0.03 0.00 77 1016.5
20260502090157 39 283 0.0 1.7 0.00 0.03 0.00 77 1016.6
20260502090132 39 283 0.0 1.7 0.00 0.03 0.00 77 1017.3
20260502071515 42 282 1.7 5.2 0.00 0.03 0.00 70 1017.0
20260502071237 42 282 2.6 6.1 0.00 0.03 0.00 69 1016.3
20260502070737 42 282 2.6 6.1 0.00 0.03 0.00 69 1016.2
20260502070210 43 282 2.6 6.1 0.00 0.03 0.00 69 1016.2
20260502070030 42 282 0.9 5.2 0.00 0.03 0.00 70 1016.9
20260502065905 43 282 1.7 5.2 0.00 0.03 0.00 70 1016.2
20260502065119 43 282 1.7 6.1 0.00 0.03 0.00 70 1016.3
20260502064618 43 273 1.7 7.8 0.00 0.03 0.00 70 1016.3
20260502064606 42 282 1.7 5.2 0.00 0.03 0.00 70 1016.9
20260502064053 43 282 2.6 7.8 0.00 0.03 0.00 70 1016.4
20260502063529 43 282 1.7 7.8 0.00 0.03 0.00 70 1016.5
20260502063034 42 282 1.7 4.3 0.00 0.03 0.00 71 1017.2
20260502063013 43 282 1.7 4.3 0.00 0.03 0.00 71 1016.6
20260502062439 43 282 1.7 4.3 0.00 0.03 0.00 72 1016.6
20260502061913 43 282 1.7 4.3 0.00 0.03 0.00 72 1016.7
20260502061635 43 282 0.9 2.6 0.00 0.03 0.00 73 1016.8
20260502061614 43 282 0.9 3.5 0.00 0.03 0.00 73 1017.4
20260502060848 43 282 1.7 2.6 0.00 0.03 0.00 73 1017.1
20260502060347 43 282 0.9 2.6 0.00 0.03 0.00 72 1017.1
20260502060030 43 282 0.9 1.7 0.00 0.03 0.00 72 1017.6
20260502055846 43 282 0.9 2.6 0.00 0.03 0.00 72 1017.1
20260502055610 44 282 0.9 2.6 0.00 0.03 0.00 72 1017.1
20260502054841 43 282 0.9 1.7 0.00 0.03 0.00 72 1017.1
20260502054550 43 282 0.9 3.5 0.00 0.03 0.00 72 1017.6
20260502054311 43 282 0.9 3.5 0.00 0.03 0.00 72 1017.1
20260502053813 43 282 0.9 2.6 0.00 0.03 0.00 72 1017.0
20260502053250 43 283 0.9 3.5 0.00 0.03 0.00 73 1017.0
20260502053057 43 283 0.0 3.5 0.00 0.03 0.00 73 1017.6
20260502052748 43 283 0.9 3.5 0.00 0.03 0.00 74 1017.0
20260502052229 43 283 0.9 3.5 0.00 0.03 0.00 75 1017.0
20260502051729 43 283 0.9 1.7 0.00 0.03 0.00 76 1017.0
20260502051506 43 283 0.9 1.7 0.00 0.03 0.00 77 1017.5
20260502051225 43 283 0.9 1.7 0.00 0.03 0.00 77 1017.0
20260502050731 43 283 0.9 1.7 0.00 0.03 0.00 79 1017.0
20260502050217 43 283 0.9 1.7 0.00 0.03 0.00 79 1017.0
20260502050040 42 283 0.9 1.7 0.00 0.03 0.00 80 1017.5
20260502045707 43 283 0.9 1.7 0.00 0.03 0.00 80 1017.0
20260502045205 42 283 0.9 1.7 0.00 0.03 0.00 80 1017.0
20260502044643 42 283 0.0 0.9 0.00 0.03 0.00 79 1017.0
20260502044506 42 283 0.0 0.9 0.00 0.03 0.00 79 1017.6
20260502044118 42 283 0.0 0.9 0.00 0.03 0.00 79 1017.1
20260502043551 42 283 0.0 0.0 0.00 0.03 0.00 78 1017.2
20260502043107 42 283 0.0 0.0 0.00 0.03 0.00 78 1017.7
20260502043034 42 283 0.0 0.0 0.00 0.03 0.00 78 1017.2
20260502042532 42 283 0.0 0.0 0.00 0.03 0.00 78 1017.1
20260502042033 43 283 0.0 0.0 0.00 0.03 0.00 77 1017.1
20260502041745 43 283 0.0 0.0 0.00 0.03 0.00 77 1017.1
20260502041558 42 283 0.0 0.0 0.00 0.03 0.00 77 1017.6
20260502040949 43 283 0.0 0.0 0.00 0.03 0.00 77 1017.1
20260502040428 43 283 0.0 0.0 0.00 0.03 0.00 77 1016.8
20260502040051 43 283 0.0 0.9 0.00 0.03 0.00 77 1017.4
20260502035921 44 283 0.0 0.9 0.00 0.03 0.03 77 1017.0
20260502035415 44 283 0.0 0.9 0.00 0.03 0.03 76 1017.0
20260502035143 44 283 0.0 0.9 0.00 0.03 0.03 76 1017.0
20260502034540 44 283 0.0 0.9 0.00 0.03 0.03 76 1017.5
20260502034347 44 283 0.0 0.9 0.00 0.03 0.03 76 1017.1
20260502034102 44 283 0.0 0.9 0.00 0.03 0.03 75 1017.1
20260502033341 45 283 0.9 1.7 0.00 0.03 0.03 75 1017.1
20260502033056 44 283 0.0 1.7 0.00 0.03 0.03 75 1017.6
20260502032817 45 283 0.9 1.7 0.00 0.03 0.03 75 1017.0
20260502032246 45 283 0.9 1.7 0.00 0.03 0.03 74 1017.1
20260502031744 45 283 0.9 1.7 0.00 0.03 0.03 74 1017.1
20260502031519 45 283 0.0 1.7 0.00 0.03 0.03 74 1017.5
20260502031219 45 283 0.9 2.6 0.00 0.03 0.03 73 1017.0
20260502030653 45 283 0.9 2.6 0.00 0.03 0.03 73 1016.8
20260502030345 46 283 0.9 2.6 0.00 0.03 0.03 73 1016.8
20260502030031 45 283 0.9 2.6 0.00 0.03 0.03 73 1017.3
20260502025621 46 283 0.9 2.6 0.00 0.03 0.03 72 1016.8
20260502025115 46 283 0.9 1.7 0.00 0.03 0.03 72 1016.7
20260502024614 46 283 0.9 2.6 0.00 0.03 0.03 72 1016.7
20260502024606 45 283 0.9 2.6 0.00 0.03 0.03 72 1017.3
20260502024109 46 284 0.9 2.6 0.00 0.03 0.03 71 1016.7
20260502023541 46 284 0.9 1.7 0.00 0.03 0.03 70 1016.7
20260502023235 46 284 0.9 1.7 0.00 0.03 0.03 70 1016.6
20260502023055 46 284 0.0 1.7 0.00 0.03 0.03 70 1017.2
20260502022447 47 288 0.0 1.7 0.00 0.03 0.03 69 1016.5
20260502021947 47 283 0.0 1.7 0.00 0.03 0.03 68 1016.5
20260502021550 46 283 0.0 1.7 0.00 0.03 0.03 68 1017.1
20260502021416 47 283 0.0 1.7 0.00 0.03 0.03 68 1016.5
20260502020915 47 283 0.0 0.9 0.00 0.03 0.03 68 1016.4
20260502020349 47 283 0.9 1.7 0.00 0.03 0.03 69 1016.5
20260502020004 47 283 0.0 1.7 0.00 0.03 0.03 68 1017.0
20260502015845 48 283 0.9 1.7 0.00 0.03 0.03 68 1016.3
20260502015345 48 283 0.9 1.7 0.00 0.03 0.03 67 1016.2
20260502014816 48 283 0.0 1.7 0.00 0.03 0.03 66 1016.1
20260502014502 47 283 0.0 2.6 0.00 0.03 0.03 66 1016.6
20260502014314 48 283 0.9 2.6 0.00 0.03 0.03 66 1016.0
20260502013747 48 283 0.9 2.6 0.00 0.03 0.03 66 1015.9
20260502013223 48 283 0.9 2.6 0.00 0.03 0.03 66 1015.9
20260502013047 47 283 0.0 2.6 0.00 0.03 0.03 66 1016.5
20260502012655 48 283 0.9 2.6 0.00 0.03 0.03 66 1015.8